When you browse on this site, cookies collect data to enhance your experience and personalize the content and advertising you see.
Visit our Privacy Policy to learn more. By continuing to use the site, you agree to this use of cookies and data.
  • In Netherlands
  • List of Countries
  • For 7 days
  • Water Temperature
  • Weather Map
  • Weather Widgets
  • user-avatar
    Login

    Hourly Weather Dzhurmachi

    Today, 25 January, Saturday

    Time Temperature Precipitation Wind Pressure Humidity
    00:00 -10°C° 0 mm 2 mps 683 mmHg 63%
    01:00 -10°C° 0 mm 2 mps 683 mmHg 59%
    02:00 -10°C° 0 mm 2 mps 683 mmHg 55%
    03:00 -9°C° 0 mm 2 mps 683 mmHg 51%
    04:00 -9°C° 0 mm 2 mps 683 mmHg 48%
    05:00 -9°C° 0 mm 2 mps 683 mmHg 45%
    06:00 -8°C° 0 mm 2 mps 682 mmHg 42%
    07:00 -7°C° 0 mm 2 mps 683 mmHg 44%
    08:00 -6°C° 0 mm 2 mps 683 mmHg 46%
    09:00 -2°C° 0 mm 1 mps 683 mmHg 48%
    10:00 -1°C° 0 mm 1 mps 683 mmHg 48%
    11:00 0°C° 0 mm 1 mps 683 mmHg 48%
    12:00 +1°C° 0 mm 1 mps 682 mmHg 48%
    13:00 +2°C° 0 mm 1 mps 682 mmHg 53%
    14:00 +2°C° 0 mm 1 mps 681 mmHg 58%
    15:00 +2°C° 0 mm 1 mps 681 mmHg 62%
    16:00 +1°C° 0 mm 1 mps 681 mmHg 60%
    17:00 0°C° 0 mm 1 mps 680 mmHg 57%
    18:00 -1°C° 0 mm 1 mps 680 mmHg 54%
    19:00 -1°C° 0 mm 1 mps 680 mmHg 52%
    20:00 -2°C° 0 mm 2 mps 680 mmHg 50%
    21:00 -2°C° 0 mm 2 mps 680 mmHg 47%
    22:00 -2°C° 0 mm 2 mps 679 mmHg 47%
    23:00 -2°C° 0 mm 2 mps 679 mmHg 46%

    Tomorrow, 26 January, Sunday

    Time Temperature Precipitation Wind Pressure Humidity
    00:00 -1°C° 0 mm 2 mps 679 mmHg 45%
    01:00 -2°C° 0 mm 2 mps 679 mmHg 45%
    02:00 -2°C° 0 mm 2 mps 678 mmHg 44%
    03:00 -2°C° 0 mm 2 mps 678 mmHg 44%
    04:00 -2°C° 0 mm 2 mps 678 mmHg 44%
    05:00 -2°C° 0 mm 2 mps 678 mmHg 44%
    06:00 -2°C° 0 mm 2 mps 677 mmHg 44%
    07:00 +1°C° 0 mm 1 mps 678 mmHg 48%
    08:00 +2°C° 0 mm 1 mps 679 mmHg 51%
    09:00 +3°C° 0 mm 1 mps 679 mmHg 54%
    10:00 +3°C° 0 mm 1 mps 679 mmHg 58%
    11:00 +3°C° 0 mm 1 mps 679 mmHg 62%
    12:00 +4°C° 0 mm 1 mps 679 mmHg 66%
    13:00 +4°C° 0 mm 1 mps 679 mmHg 70%
    14:00 +3°C° 0 mm 1 mps 679 mmHg 74%
    15:00 +3°C° 0 mm 1 mps 679 mmHg 79%
    16:00 +2°C° 0 mm 1 mps 679 mmHg 77%
    17:00 +1°C° 0 mm 1 mps 680 mmHg 75%
    18:00 0°C° 0 mm 1 mps 680 mmHg 74%
    19:00 0°C° 0 mm 1 mps 680 mmHg 73%
    20:00 0°C° 0 mm 1 mps 681 mmHg 72%
    21:00 0°C° 0 mm 1 mps 681 mmHg 71%
    22:00 -1°C° 0 mm 1 mps 682 mmHg 72%
    23:00 -1°C° 0 mm 1 mps 682 mmHg 73%

    Day after tomorrow, 27 January, Monday

    Time Temperature Precipitation Wind Pressure Humidity
    00:00 -2°C° 0 mm 1 mps 682 mmHg 73%
    01:00 -2°C° 0 mm 1 mps 682 mmHg 73%
    02:00 -2°C° 0 mm 1 mps 682 mmHg 73%
    03:00 -2°C° 0 mm 1 mps 683 mmHg 72%
    04:00 -2°C° 0 mm 1 mps 683 mmHg 71%
    05:00 -2°C° 0 mm 1 mps 683 mmHg 71%
    06:00 -2°C° 0 mm 1 mps 683 mmHg 70%
    07:00 -1°C° 0 mm 1 mps 684 mmHg 69%
    08:00 0°C° 0 mm 1 mps 685 mmHg 68%
    09:00 +1°C° 0 mm 1 mps 685 mmHg 68%
    10:00 +2°C° 0 mm 1 mps 685 mmHg 70%
    11:00 +3°C° 0 mm 1 mps 685 mmHg 71%
    12:00 +4°C° 0 mm 1 mps 685 mmHg 73%
    13:00 +4°C° 0 mm 1 mps 684 mmHg 76%
    14:00 +4°C° 0 mm 1 mps 684 mmHg 79%
    15:00 +4°C° 0 mm 1 mps 684 mmHg 82%
    16:00 +3°C° 0 mm 1 mps 683 mmHg 79%
    17:00 +2°C° 0 mm 1 mps 683 mmHg 76%
    18:00 +1°C° 0 mm 1 mps 683 mmHg 73%
    19:00 +1°C° 0 mm 1 mps 683 mmHg 69%
    20:00 +1°C° 0 mm 1 mps 683 mmHg 64%
    21:00 +1°C° 0 mm 1 mps 683 mmHg 60%
    22:00 +1°C° 0 mm 1 mps 683 mmHg 58%
    23:00 +1°C° 0 mm 1 mps 682 mmHg 55%

    28 January, Tuesday

    Time Temperature Precipitation Wind Pressure Humidity
    00:00 +1°C° 0 mm 1 mps 682 mmHg 53%
    01:00 +1°C° 0 mm 1 mps 682 mmHg 52%
    02:00 +1°C° 0 mm 1 mps 681 mmHg 51%
    03:00 -1°C° 0 mm 2 mps 681 mmHg 50%
    04:00 -1°C° 0 mm 2 mps 681 mmHg 49%
    05:00 -1°C° 0 mm 2 mps 681 mmHg 49%
    06:00 -2°C° 0 mm 2 mps 681 mmHg 48%
    07:00 +1°C° 0 mm 2 mps 681 mmHg 49%
    08:00 +3°C° 0 mm 1 mps 681 mmHg 50%
    09:00 +4°C° 0 mm 1 mps 681 mmHg 51%
    10:00 +5°C° 0 mm 1 mps 681 mmHg 56%
    11:00 +6°C° 0 mm 1 mps 680 mmHg 60%
    12:00 +7°C° 0 mm 1 mps 680 mmHg 65%
    13:00 +6°C° 0 mm 1 mps 680 mmHg 65%
    14:00 +6°C° 0 mm 1 mps 679 mmHg 65%
    15:00 +6°C° 0 mm 1 mps 679 mmHg 64%
    16:00 +5°C° 0 mm 1 mps 678 mmHg 63%
    17:00 +4°C° 0 mm 1 mps 678 mmHg 61%
    18:00 +3°C° 0 mm 1 mps 678 mmHg 59%
    19:00 +3°C° 0 mm 1 mps 677 mmHg 58%
    20:00 +3°C° 0 mm 1 mps 677 mmHg 56%
    21:00 +2°C° 0 mm 2 mps 677 mmHg 55%
    22:00 +2°C° 0 mm 2 mps 677 mmHg 54%
    23:00 +2°C° 0 mm 2 mps 676 mmHg 53%

    29 January, Wednesday

    Time Temperature Precipitation Wind Pressure Humidity
    00:00 +2°C° 0 mm 2 mps 676 mmHg 51%
    01:00 +2°C° 0 mm 2 mps 676 mmHg 52%
    02:00 +2°C° 0 mm 2 mps 676 mmHg 52%
    03:00 +2°C° 0 mm 2 mps 675 mmHg 53%
    04:00 +2°C° 0 mm 2 mps 675 mmHg 54%
    05:00 +2°C° 0 mm 2 mps 675 mmHg 56%
    06:00 +2°C° 0 mm 2 mps 675 mmHg 58%
    07:00 +3°C° 0 mm 1 mps 675 mmHg 58%
    08:00 +4°C° 0 mm 1 mps 676 mmHg 59%
    09:00 +4°C° 0 mm 1 mps 676 mmHg 60%
    10:00 +5°C° 0 mm 1 mps 676 mmHg 64%
    11:00 +6°C° 0 mm 1 mps 676 mmHg 67%
    12:00 +6°C° 0 mm 1 mps 676 mmHg 71%
    13:00 +6°C° 0 mm 1 mps 676 mmHg 72%
    14:00 +6°C° 0 mm 1 mps 676 mmHg 74%
    15:00 +6°C° 0 mm 1 mps 676 mmHg 76%
    16:00 +5°C° 0 mm 1 mps 676 mmHg 76%
    17:00 +4°C° 0 mm 1 mps 676 mmHg 76%
    18:00 +3°C° 0 mm 1 mps 676 mmHg 76%
    19:00 +3°C° 0 mm 1 mps 676 mmHg 73%
    20:00 +3°C° 0 mm 1 mps 677 mmHg 70%
    21:00 +3°C° 0 mm 1 mps 677 mmHg 67%
    22:00 +3°C° 0 mm 1 mps 677 mmHg 66%
    23:00 +3°C° 0 mm 1 mps 677 mmHg 65%

    30 January, Thursday

    Time Temperature Precipitation Wind Pressure Humidity
    00:00 +2°C° 0 mm 1 mps 677 mmHg 64%
    01:00 +2°C° 0 mm 1 mps 677 mmHg 64%
    02:00 +2°C° 0 mm 1 mps 676 mmHg 63%
    03:00 +2°C° 0 mm 1 mps 676 mmHg 63%
    04:00 +2°C° 0 mm 1 mps 676 mmHg 63%
    05:00 +1°C° 0 mm 2 mps 676 mmHg 62%
    06:00 +1°C° 0 mm 2 mps 677 mmHg 62%
    07:00 +3°C° 0 mm 1 mps 677 mmHg 62%
    08:00 +3°C° 0 mm 1 mps 677 mmHg 61%
    09:00 +4°C° 0 mm 1 mps 678 mmHg 61%
    10:00 +5°C° 0 mm 1 mps 678 mmHg 62%
    11:00 +6°C° 0 mm 1 mps 678 mmHg 62%
    12:00 +7°C° 0 mm 1 mps 677 mmHg 62%
    13:00 +7°C° 0 mm 1 mps 677 mmHg 65%
    14:00 +7°C° 0 mm 1 mps 677 mmHg 67%
    15:00 +7°C° 0 mm 1 mps 677 mmHg 69%
    16:00 +6°C° 0 mm 1 mps 677 mmHg 69%
    17:00 +5°C° 0 mm 1 mps 677 mmHg 70%
    18:00 +2°C° 0 mm 2 mps 676 mmHg 71%
    19:00 +2°C° 0 mm 2 mps 676 mmHg 68%
    20:00 +2°C° 0 mm 2 mps 676 mmHg 66%
    21:00 +2°C° 0 mm 2 mps 676 mmHg 63%
    22:00 +2°C° 0 mm 2 mps 675 mmHg 62%
    23:00 +2°C° 0 mm 2 mps 675 mmHg 60%
    Show more